User: anonymous   Login
Location: Copeville
(33.0796°N, 96.4155°W)
Time: 04:52:37
(UTC+00:00)
Language:

Oscar 11 - Orbit

View from above orbital plane
View from above orbital plane
View from above satellite
View from above satellite

Ground track
Ground track

The orbit data is extracted from the following two-line orbital elements,

1 14781U 84021B   23342.47683298  .00001567  00000-0  18644-3 0  9992
2 14781  97.6809 312.9570 0008196   0.6716 359.4509 14.85721511120017
Epoch (UTC): 08 December 2023 11:26:38
Eccentricity: 0.0008196
inclination: 97.6809°
perigee height: 605 km
apogee height: 617 km
right ascension of ascending node: 312.9570°
argument of perigee: 0.6716°
revolutions per day: 14.85721511
mean anomaly at epoch: 359.4509°
orbit number at epoch: 12001

The dashed part of the orbit path shows where the satellite is in the earth's shadow,  

DLR